Weather History for KSLH - March, 2014

Change the Weather History Date:

Saturday, March 29, 2014

  Actual Average (KPLN) Record (KPLN)
Temperature  
Mean Temperature 27 °F -  
Max Temperature 33 °F 43 °F 65 °F (1981)
Min Temperature 21 °F 25 °F -14 °F (1970)
Degree Days  
Heating Degree Days 38    
Moisture  
Dew Point 20 °F    
Average Humidity 76    
Maximum Humidity 90    
Minimum Humidity 50    
Precipitation  
Precipitation 0.00 in - - ()
Sea Level Pressure  
Sea Level Pressure 30.27 in    
Wind  
Wind Speed 4 mph (NE)    
Max Wind Speed 12 mph    
Max Gust Speed -    
Visibility 10 miles    
Events      
Averages and records for this station are not official NWS values.
T = Trace of Precipitation, MM = Missing Value Source: NWS Daily Summary

Daily Weather History Graph

Daily Weather History Graph

Search for Another Location

Airport or City:

Trip Planner

Search our weather history database for the weather conditions in past years. The results will help you decide how hot, cold, wet, or windy it might be!

Date:

Astronomy

Mar. 29, 2014 Rise Set
Actual Time 7:23 AM EDT 8:02 PM EDT
Civil Twilight 6:54 AM EDT 8:32 PM EDT
Nautical Twilight 6:18 AM EDT 9:07 PM EDT
Astronomical Twilight 5:41 AM EDT 9:45 PM EDT
Moon 6:35 AM EDT (3/29) 7:04 PM EDT (3/29)
Length of Visible Light 13h 38m
Length of Day
12h 38m
Waning Crescent, 2% of the Moon is Illuminated
Mar 29
Waning Crescent
Mar 30
New
Apr 7
First Quarter
Apr 15
Full
Apr 22
Last Quarter

Hourly Weather History & Observations

Time (EDT) Temp. Windchill Dew Point Humidity Pressure Visibility Wind Dir Wind Speed Gust Speed Precip Events Conditions
12:15 AM 25.7 °F - 22.5 °F 88% 30.26 in 10.0 mi Calm Calm - N/A   Clear
12:36 AM 25.5 °F 21.3 °F 22.3 °F 88% 30.25 in 10.0 mi North 3.5 mph - N/A   Clear
12:55 AM 25.7 °F 19.0 °F 21.2 °F 83% 30.24 in 10.0 mi NNW 5.8 mph - N/A   Clear
1:15 AM 25.5 °F 18.7 °F 20.8 °F 82% 30.23 in 10.0 mi NNW 5.8 mph - N/A   Clear
1:36 AM 25.2 °F 17.3 °F 19.8 °F 80% 30.23 in 10.0 mi NNW 6.9 mph - N/A   Clear
1:55 AM 24.6 °F 17.7 °F 19.0 °F 79% 30.24 in 10.0 mi NW 5.8 mph - N/A   Clear
2:16 AM 24.4 °F 17.5 °F 18.5 °F 78% 30.25 in 10.0 mi NNW 5.8 mph - N/A   Clear
2:35 AM 23.9 °F 18.0 °F 18.3 °F 79% 30.25 in 10.0 mi NW 4.6 mph - N/A   Scattered Clouds
2:56 AM 23.7 °F - 18.3 °F 80% 30.25 in 10.0 mi Calm Calm - N/A   Scattered Clouds
3:15 AM 23.4 °F - 18.1 °F 80% 30.25 in 10.0 mi Calm Calm - N/A   Scattered Clouds
3:35 AM 22.8 °F 18.2 °F 18.0 °F 82% 30.25 in 10.0 mi NW 3.5 mph - N/A   Clear
3:56 AM 22.8 °F - 18.0 °F 82% 30.24 in 10.0 mi Calm Calm - N/A   Clear
4:15 AM 22.1 °F 17.4 °F 18.0 °F 84% 30.23 in 10.0 mi NW 3.5 mph - N/A   Clear
4:36 AM 22.6 °F - 18.0 °F 82% 30.24 in 10.0 mi Calm Calm - N/A   Clear
4:56 AM 22.8 °F - 18.1 °F 82% 30.25 in 10.0 mi Calm Calm - N/A   Clear
5:15 AM 22.5 °F - 18.3 °F 84% 30.26 in 10.0 mi Calm Calm - N/A   Clear
5:36 AM 22.5 °F - 18.5 °F 85% 30.27 in 10.0 mi Calm Calm - N/A   Clear
5:55 AM 22.6 °F - 18.5 °F 84% 30.28 in 10.0 mi Calm Calm - N/A   Scattered Clouds
6:15 AM 22.6 °F - 18.9 °F 85% 30.29 in 10.0 mi Calm Calm - N/A   Mostly Cloudy
6:36 AM 22.6 °F - 18.7 °F 85% 30.30 in 10.0 mi Calm Calm - N/A   Overcast
6:55 AM 22.3 °F - 19.0 °F 87% 30.30 in 10.0 mi Calm Calm - N/A   Overcast
7:15 AM 21.9 °F - 19.0 °F 89% 30.30 in 10.0 mi Calm Calm - N/A   Overcast
7:35 AM 21.9 °F - 19.4 °F 90% 30.30 in 10.0 mi Calm Calm - N/A   Overcast
7:55 AM 21.7 °F - 19.2 °F 90% 30.30 in 10.0 mi Calm Calm - N/A   Overcast
8:16 AM 22.1 °F - 18.9 °F 87% 30.31 in 10.0 mi Calm Calm - N/A   Mostly Cloudy
8:35 AM 22.6 °F - 18.9 °F 85% 30.31 in 10.0 mi Calm Calm - N/A   Scattered Clouds
8:55 AM 23.4 °F 18.9 °F 19.0 °F 84% 30.31 in 10.0 mi NNW 3.5 mph - N/A   Clear
9:16 AM 23.9 °F 18.0 °F 19.2 °F 82% 30.31 in 10.0 mi NNW 4.6 mph - N/A   Clear
9:35 AM 25.5 °F - 20.8 °F 82% 30.31 in 10.0 mi Calm Calm - N/A   Clear
9:55 AM 27.7 °F 22.4 °F 22.8 °F 82% 30.31 in 10.0 mi North 4.6 mph - N/A   Clear
10:16 AM 28.4 °F 24.6 °F 23.7 °F 83% 30.31 in 10.0 mi NE 3.5 mph - N/A   Clear
10:35 AM 29.3 °F 22.3 °F 24.4 °F 82% 30.31 in 10.0 mi NNE 6.9 mph - N/A   Clear
10:56 AM 29.8 °F 23.9 °F 25.0 °F 82% 30.31 in 10.0 mi NNE 5.8 mph - N/A   Clear
11:15 AM 31.1 °F 24.5 °F 26.1 °F 82% 30.31 in 10.0 mi NE 6.9 mph - N/A   Clear
11:35 AM 31.6 °F 23.7 °F 26.2 °F 80% 30.31 in 10.0 mi NE 9.2 mph - N/A   Clear
11:56 AM 32.0 °F 23.0 °F 25.0 °F 75% 30.31 in 10.0 mi NE 11.5 mph - N/A   Scattered Clouds
12:15 PM 32.0 °F 24.2 °F 26.4 °F 80% 30.31 in 10.0 mi ENE 9.2 mph - N/A   Mostly Cloudy
12:35 PM 32.0 °F 23.0 °F 25.3 °F 76% 30.31 in 10.0 mi NE 11.5 mph - N/A   Scattered Clouds
12:56 PM 32.0 °F 23.0 °F 25.9 °F 78% 30.30 in 10.0 mi NE 11.5 mph - N/A   Scattered Clouds
1:15 PM 32.0 °F 24.2 °F 25.5 °F 77% 30.30 in 10.0 mi ENE 9.2 mph - N/A   Scattered Clouds
1:35 PM 32.0 °F 23.6 °F 23.9 °F 72% 30.30 in 10.0 mi ENE 10.4 mph - N/A   Clear
1:56 PM 32.0 °F 24.8 °F 23.2 °F 70% 30.28 in 10.0 mi ENE 8.1 mph - N/A   Clear
2:15 PM 32.5 °F 25.5 °F 23.2 °F 68% 30.28 in 10.0 mi ENE 8.1 mph - N/A   Clear
2:36 PM 32.9 °F 25.9 °F 21.9 °F 64% 30.27 in 10.0 mi ENE 8.1 mph - N/A   Clear
2:55 PM 33.1 °F 25.5 °F 22.1 °F 64% 30.26 in 10.0 mi ENE 9.2 mph - N/A   Clear
3:15 PM 32.9 °F 24.7 °F 20.8 °F 61% 30.26 in 10.0 mi ENE 10.4 mph - N/A   Clear
3:36 PM 33.1 °F 25.5 °F 20.7 °F 60% 30.25 in 10.0 mi ENE 9.2 mph - N/A   Clear
3:55 PM 32.9 °F 24.7 °F 19.8 °F 59% 30.25 in 10.0 mi ENE 10.4 mph - N/A   Clear
4:15 PM 32.9 °F 24.7 °F 19.8 °F 59% 30.24 in 10.0 mi ENE 10.4 mph - N/A   Clear
4:35 PM 32.9 °F 25.3 °F 17.8 °F 54% 30.24 in 10.0 mi ENE 9.2 mph - N/A   Clear
4:55 PM 33.1 °F 26.9 °F 16.0 °F 50% 30.23 in 10.0 mi ENE 6.9 mph - N/A   Clear
5:15 PM 33.1 °F 27.7 °F 16.9 °F 51% 30.23 in 10.0 mi NE 5.8 mph - N/A   Clear
5:35 PM 33.1 °F 26.9 °F 16.3 °F 50% 30.23 in 10.0 mi ENE 6.9 mph - N/A   Clear
5:56 PM 32.2 °F 26.7 °F 18.0 °F 56% 30.22 in 10.0 mi ENE 5.8 mph - N/A   Clear
6:15 PM 32.5 °F 27.1 °F 17.2 °F 53% 30.22 in 10.0 mi ENE 5.8 mph - N/A   Clear
6:35 PM 32.7 °F 28.3 °F 18.5 °F 56% 30.23 in 10.0 mi ENE 4.6 mph - N/A   Clear
6:56 PM 32.4 °F 29.1 °F 18.5 °F 57% 30.23 in 10.0 mi ENE 3.5 mph - N/A   Clear
7:15 PM 31.6 °F 27.0 °F 19.4 °F 61% 30.23 in 10.0 mi ENE 4.6 mph - N/A   Clear
7:35 PM 31.3 °F 26.6 °F 19.0 °F 61% 30.23 in 10.0 mi ENE 4.6 mph - N/A   Clear
7:55 PM 30.2 °F - 19.9 °F 66% 30.23 in 10.0 mi Calm Calm - N/A   Clear
8:15 PM 30.0 °F - 19.4 °F 65% 30.24 in 10.0 mi Calm Calm - N/A   Clear
8:36 PM 28.0 °F - 20.1 °F 72% 30.25 in 10.0 mi Calm Calm - N/A   Clear
8:55 PM 26.8 °F - 20.3 °F 77% 30.25 in 10.0 mi Calm Calm - N/A   Clear
9:15 PM 26.2 °F - 20.3 °F 78% 30.26 in 10.0 mi Calm Calm - N/A   Clear
9:36 PM 25.0 °F - 19.4 °F 79% 30.26 in 10.0 mi Calm Calm - N/A   Clear
9:55 PM 25.3 °F - 19.6 °F 79% 30.26 in 10.0 mi Calm Calm - N/A   Clear
10:15 PM 23.9 °F - 19.4 °F 83% 30.26 in 10.0 mi Calm Calm - N/A   Clear
10:35 PM 24.1 °F - 19.2 °F 82% 30.26 in 10.0 mi Calm Calm - N/A   Clear
10:55 PM 21.7 °F - 17.2 °F 83% 30.26 in 10.0 mi Calm Calm - N/A   Clear
11:15 PM 21.9 °F - 18.5 °F 87% 30.26 in 10.0 mi Calm Calm - N/A   Clear
11:35 PM 21.9 °F - 19.2 °F 89% 30.25 in 10.0 mi Calm Calm - N/A   Clear
11:56 PM 21.4 °F - 17.6 °F 85% 30.25 in 10.0 mi Calm Calm - N/A   Clear